Weather History for CWZG - August, 2013

Change the Weather History Date:

Monday, August 19, 2013

  Actual Average Record
Temperature  
Mean Temperature 62 °F -  
Max Temperature 67 °F - - ()
Min Temperature 56 °F - - ()
Degree Days  
Heating Degree Days 4    
Growing Degree Days 12 (Base 50)    
Moisture  
Dew Point 35 °F    
Average Humidity 36    
Maximum Humidity 54    
Minimum Humidity 27    
Precipitation  
Precipitation 0.00 in - - ()
Sea Level Pressure  
Sea Level Pressure 29.84 in    
Wind  
Wind Speed 7 mph ()    
Max Wind Speed 14 mph    
Max Gust Speed 26 mph    
T = Trace of Precipitation, MM = Missing Value Source: Averaged Metar Reports

Daily Weather History Graph

Daily Weather History Graph

Search for Another Location

Airport or City:

Trip Planner

Search our weather history database for the weather conditions in past years. The results will help you decide how hot, cold, wet, or windy it might be!

Date:

Astronomy

Aug. 19, 2013 Rise Set
Actual Time 6:35 AM MDT 8:54 PM MDT
Civil Twilight 5:58 AM MDT 9:31 PM MDT
Nautical Twilight 5:12 AM MDT 10:16 PM MDT
Astronomical Twilight 4:19 AM MDT 11:09 PM MDT
Moon 7:48 PM MDT (8/19) 4:56 AM MDT (8/19)
Length of Visible Light 15h 32m
Length of Day
14h 19m
Waxing Gibbous, 97% of the Moon is Illuminated
Aug 19
Waxing Gibbous
Aug 20
Full
Aug 28
Last Quarter
Sep 5
New
Sep 12
First Quarter

Hourly Weather History & Observations

Time (MDT) Temp. Dew Point Humidity Pressure Visibility Wind Dir Wind Speed Gust Speed Precip Events Conditions
12:00 AM 62.2 °F 40.5 °F 45% 29.85 in - SW 9.2 mph - N/A   Unknown
1:00 AM 61.7 °F 40.5 °F 46% 29.84 in - SW 8.1 mph - N/A   Unknown
2:00 AM 61.0 °F 40.1 °F 46% 29.84 in - SW 5.8 mph - N/A   Unknown
3:00 AM 60.6 °F 39.7 °F 46% 29.83 in - SW 5.8 mph - N/A   Unknown
4:00 AM 60.3 °F 38.8 °F 45% 29.83 in - SW 5.8 mph - N/A   Unknown
5:00 AM 58.5 °F 39.4 °F 49% 29.83 in - WSW 4.6 mph - N/A   Unknown
6:00 AM 56.7 °F 39.9 °F 54% 29.84 in - SW 4.6 mph - N/A   Unknown
7:00 AM 61.2 °F 40.1 °F 46% 29.84 in - SW 5.8 mph - N/A   Unknown
8:00 AM 62.2 °F 39.2 °F 43% 29.84 in - SW 8.1 mph - N/A   Unknown
9:00 AM 66.2 °F 37.6 °F 35% 29.83 in - WSW 9.2 mph - N/A   Unknown
10:00 AM 67.6 °F 34.5 °F 29% 29.83 in - SW 10.4 mph 21.9 mph N/A   Unknown
11:00 AM 64.4 °F 34.3 °F 33% 29.84 in - SW 8.1 mph 18.4 mph N/A   Unknown
12:00 PM 64.6 °F 31.1 °F 29% 29.84 in - SW 11.5 mph 23.0 mph N/A   Unknown
1:00 PM 65.1 °F 29.8 °F 27% 29.85 in - SW 12.7 mph 26.5 mph N/A   Unknown
2:00 PM 66.2 °F 30.7 °F 27% 29.84 in - WSW 11.5 mph 24.2 mph N/A   Unknown
3:00 PM 66.0 °F 31.3 °F 27% 29.84 in - SW 12.7 mph 26.5 mph N/A   Unknown
4:00 PM 66.4 °F 34.0 °F 30% 29.85 in - WSW 10.4 mph 20.7 mph N/A   Unknown
5:00 PM 66.0 °F 31.6 °F 28% 29.85 in - SW 13.8 mph 26.5 mph N/A   Unknown
6:00 PM 66.0 °F 31.8 °F 28% 29.83 in - SW 11.5 mph 24.2 mph N/A   Unknown
7:00 PM 64.6 °F 30.9 °F 28% 29.83 in - WSW 11.5 mph 20.7 mph N/A   Unknown
8:00 PM 63.1 °F 30.7 °F 30% 29.83 in - West 4.6 mph - N/A   Unknown
9:00 PM 61.5 °F 31.3 °F 32% 29.83 in - WSW 4.6 mph - N/A   Unknown
10:00 PM 60.1 °F 30.7 °F 33% 29.86 in - WSW 5.8 mph - N/A   Unknown
11:00 PM 58.1 °F 31.8 °F 37% 29.88 in - SW 4.6 mph - N/A   Unknown